Flag for Canada Weather past 2 weeks in Niagara Falls, Ontario, Canada

Now
72 °F

Clear.


Feels Like: 70 °F
Forecast: 63 / 82 °F
Wind: 7 mph from Southwest

Location: Niagara Falls International Airport

Current Time: Aug 31, 2015 at 10:16:02 PM

Latest Report: Aug 31, 2015 at 8:53 PM


Visibility: 10 mi

Pressure: 30.01 "Hg

Humidity: 87%

Dew point: 68 °F

Location of Niagara FallsLocation

Historic Weather in Niagara Falls — Graph

°F

Niagara Falls temperature yesterday

Maximum temperature yesterday: 79 °F (at 2:53 PM)
Minimum temperature yesterday: 66 °F (at 4:53 AM)
Average temperature yesterday: 71 °F

Past Weeks' High & Low Weather Summary

 TemperatureHumidityPressure
High86 °F (Aug 17, 3:53 PM)96% (Aug 31, 4:53 AM)30.22 "Hg (Aug 31, 4:53 AM)
Low51 °F (Aug 28, 5:53 AM)40% (Aug 22, 3:53 PM)29.73 "Hg (Aug 20, 5:53 AM)
Average69 °F73%30.00 "Hg
* Reported Aug 16 8:53 PM — Aug 31 8:53 PM, Niagara Falls, Weather by CustomWeather, © 2015

Note: Actual official high and low records may vary slightly from our data, if they occured in-between our weather recording intervals... More about our weather records

Advertising

Niagara Falls weather history for previous 24 hours

 ConditionsComfort  
Time TempWeatherWind HumidityBarometerVisibility
8:53 PM
Mon, Aug 31
72 °FClear.7 mph87%30.01 "Hg10 mi
7:53 PM74 °FPassing clouds.7 mph79%30.00 "Hg10 mi
6:53 PM76 °FPassing clouds.10 mph74%30.00 "Hg10 mi
5:53 PM79 °FPassing clouds.14 mph67%30.00 "Hg10 mi
4:53 PM81 °FScattered clouds.14 mph65%29.99 "Hg10 mi
3:53 PM83 °FScattered clouds.14 mph61%29.99 "Hg10 mi
2:53 PM82 °FScattered clouds.15 mph65%30.00 "Hg8 mi
1:53 PM83 °FPartly sunny.10 mph57%30.01 "Hg10 mi
12:53 PM80 °FPartly sunny.12 mph62%30.02 "Hg10 mi
11:53 AM77 °FPartly sunny.9 mph71%30.04 "Hg9 mi
10:53 AM76 °FBroken clouds.9 mph77%30.04 "Hg8 mi
9:53 AM74 °FPartly sunny.7 mph85%30.03 "Hg5 mi
8:53 AM69 °FFog.9 mph96%30.03 "Hg3 mi
7:53 AM68 °FFog.6 mph96%30.02 "Hg2 mi
7:01 AM66 °FFog.No wind93%30.02 "Hg1 mi
6:03 AM66 °FFog.No wind93%30.00 "Hg1 mi
6:00 AM66 °FFog.No wind93%30.01 "Hg1 mi
4:53 AM66 °FFog.3 mph96%29.99 "Hg2 mi
3:53 AM67 °FFog.No wind93%29.99 "Hg5 mi
2:53 AM68 °FClear.6 mph93%29.99 "Hg7 mi
1:53 AM67 °FClear.6 mph93%30.00 "Hg7 mi
12:53 AM67 °FClear.5 mph90%30.01 "Hg9 mi
11:53 PM
Sun, Aug 30
68 °FClear.6 mph87%30.01 "Hg10 mi
10:53 PM69 °FPassing clouds.7 mph87%30.01 "Hg10 mi
Weather by CustomWeather, © 2015

See weather overviewHow to use our weather pages